EW6756 Weather Reports


time (UTC)temp
F
wind
direction
speed
knots
gust
knots
rain 1hr
in
rain 24hr
in
rain mn
in
humidity
%
barometer
mb
20260506202216 50 23 1.7 4.3 0.00 0.00 0.00 68 1011.0
20260506201503 51 28 1.7 3.5 0.00 0.00 0.00 68 1011.3
20260506201003 51 29 1.7 3.5 0.00 0.00 0.00 67 1010.9
20260506200717 51 32 1.7 3.5 0.00 0.00 0.00 67 1010.9
20260506200003 52 39 1.7 6.1 0.00 0.00 0.00 67 1010.9
20260506195717 52 37 2.6 7.0 0.00 0.00 0.00 66 1011.0
20260506195003 52 28 3.5 7.0 0.00 0.00 0.00 66 1010.9
20260506194503 52 23 2.6 7.0 0.00 0.00 0.00 66 1010.6
20260506194218 52 28 2.6 7.0 0.00 0.00 0.00 66 1010.8
20260506193504 53 31 2.6 7.0 0.00 0.00 0.00 66 1010.6
20260506193003 53 31 3.5 10.4 0.00 0.00 0.00 66 1010.5
20260506192503 53 29 3.5 10.4 0.00 0.00 0.00 66 1010.5
20260506192003 53 23 3.5 8.7 0.00 0.00 0.00 66 1010.6
20260506191503 53 25 3.5 8.7 0.00 0.00 0.00 65 1010.4
20260506191003 53 29 4.3 8.7 0.00 0.00 0.00 65 1010.2
20260506190717 53 28 4.3 8.7 0.00 0.00 0.00 65 1010.4
20260506190007 54 30 3.5 7.0 0.00 0.00 0.00 64 1010.3
20260506185503 54 18 3.5 7.0 0.00 0.00 0.00 64 1010.1
20260506185003 54 26 3.5 10.4 0.00 0.00 0.00 63 1010.1
20260506184717 54 27 3.5 10.4 0.00 0.00 0.00 63 1010.0
20260506184003 54 29 2.6 8.7 0.00 0.00 0.00 62 1010.0
20260506183503 54 28 2.6 8.7 0.00 0.00 0.00 61 1009.8
20260506183003 55 34 1.7 6.1 0.00 0.00 0.00 60 1009.7
20260506182503 55 47 2.6 6.1 0.00 0.00 0.00 60 1009.9
20260506182218 55 43 2.6 6.1 0.00 0.00 0.00 59 1009.8
20260506181503 55 34 3.5 7.0 0.00 0.00 0.00 58 1009.7
20260506181003 55 42 3.5 8.7 0.00 0.00 0.00 58 1009.8
20260506180503 55 38 3.5 8.7 0.00 0.00 0.00 57 1009.8
20260506180004 55 36 3.5 8.7 0.00 0.00 0.00 57 1009.7
20260506175503 56 41 3.5 9.6 0.00 0.00 0.00 57 1009.5
20260506175003 56 37 4.3 9.6 0.00 0.00 0.00 56 1009.6
20260506174503 56 35 3.5 8.7 0.00 0.00 0.00 56 1009.6
20260506174003 56 24 2.6 7.0 0.00 0.00 0.00 56 1009.5
20260506173716 56 18 2.6 7.0 0.00 0.00 0.00 56 1009.3
20260506173218 56 28 2.6 7.0 0.00 0.00 0.00 56 1009.3
20260506172503 56 34 3.5 8.7 0.00 0.00 0.00 55 1009.4
20260506172217 56 33 3.5 8.7 0.00 0.00 0.00 55 1009.4
20260506171503 56 41 3.5 8.7 0.00 0.00 0.00 55 1009.4
20260506171003 56 33 4.3 9.6 0.00 0.00 0.00 55 1009.4
20260506170503 57 20 4.3 9.6 0.00 0.00 0.00 54 1009.3
20260506170003 57 21 4.3 9.6 0.00 0.00 0.00 54 1009.3
20260506165503 57 36 4.3 10.4 0.00 0.00 0.00 53 1009.2
20260506165003 57 39 3.5 10.4 0.00 0.00 0.00 53 1009.3
20260506164503 57 34 3.5 12.2 0.00 0.00 0.00 52 1009.2
20260506164003 57 41 4.3 12.2 0.00 0.00 0.00 52 1009.3
20260506163503 57 43 4.3 9.6 0.00 0.00 0.00 51 1009.3
20260506163003 57 35 4.3 9.6 0.00 0.00 0.00 51 1009.1
20260506162503 57 35 4.3 9.6 0.00 0.00 0.00 50 1009.0
20260506162003 57 42 5.2 12.2 0.00 0.00 0.00 49 1009.2
20260506161718 57 39 5.2 12.2 0.00 0.00 0.00 50 1009.3
20260506161003 57 19 5.2 13.0 0.00 0.00 0.00 49 1009.2
20260506160718 57 26 6.1 13.0 0.00 0.00 0.00 48 1009.2
20260506160003 58 47 5.2 13.0 0.00 0.00 0.00 48 1009.1
20260506155503 58 44 5.2 12.2 0.00 0.00 0.00 48 1009.2
20260506155003 58 32 5.2 12.2 0.00 0.00 0.00 48 1009.3
20260506154503 58 26 5.2 12.2 0.00 0.00 0.00 47 1009.3
20260506154003 58 30 5.2 13.0 0.00 0.00 0.00 47 1009.3
20260506153503 58 30 6.1 13.0 0.00 0.00 0.00 46 1009.2
20260506153217 58 33 6.1 13.0 0.00 0.00 0.00 46 1009.1
20260506152718 58 38 5.2 13.0 0.00 0.00 0.00 46 1009.5
20260506152217 58 37 6.1 13.0 0.00 0.00 0.00 47 1009.4
20260506151503 59 38 6.1 15.6 0.00 0.00 0.00 46 1009.2
20260506151216 59 42 6.1 15.6 0.00 0.00 0.00 46 1009.3
20260506150503 59 44 4.3 15.6 0.00 0.00 0.00 45 1009.3
20260506150003 59 33 3.5 9.6 0.00 0.00 0.00 44 1009.4
20260506145503 59 41 4.3 9.6 0.00 0.00 0.00 43 1009.1
20260506145216 59 35 5.2 13.0 0.00 0.00 0.00 43 1009.3
20260506144717 59 30 5.2 13.0 0.00 0.00 0.00 44 1009.3
20260506144216 59 38 6.1 13.0 0.00 0.00 0.00 45 1009.3
20260506143503 59 45 6.1 13.0 0.00 0.00 0.00 44 1009.3
20260506143003 59 43 6.1 13.0 0.00 0.00 0.00 45 1009.2
20260506142503 59 41 5.2 13.0 0.00 0.00 0.00 45 1009.3
20260506142003 59 44 5.2 13.9 0.00 0.00 0.00 44 1009.1
20260506141717 59 42 5.2 16.5 0.00 0.00 0.00 45 1009.3
20260506141003 59 35 6.1 16.5 0.00 0.00 0.00 46 1009.3
20260506140503 59 43 5.2 18.2 0.00 0.00 0.00 47 1009.2
20260506140003 59 44 6.1 18.2 0.00 0.00 0.00 47 1009.3
20260506135503 59 36 6.1 18.2 0.00 0.00 0.00 46 1009.1
20260506135003 59 28 4.3 10.4 0.00 0.00 0.00 47 1009.3
20260506134503 59 38 5.2 18.2 0.00 0.00 0.00 46 1009.1
20260506134218 59 37 7.0 18.2 0.00 0.00 0.00 45 1009.2
20260506133503 59 38 7.0 18.2 0.00 0.00 0.00 46 1009.3
20260506133003 59 36 7.0 15.6 0.00 0.00 0.00 47 1009.0
20260506132717 59 42 7.0 15.6 0.00 0.00 0.00 46 1009.1
20260506132003 59 53 7.0 15.6 0.00 0.00 0.00 48 1009.1
20260506131503 59 37 6.1 13.9 0.00 0.00 0.00 48 1008.9
20260506131003 59 22 5.2 13.9 0.00 0.00 0.00 47 1009.0
20260506130503 59 18 5.2 13.9 0.00 0.00 0.00 48 1008.9
20260506130004 59 24 5.2 13.0 0.00 0.00 0.00 48 1009.0
20260506125503 59 29 7.0 13.0 0.00 0.00 0.00 49 1009.0
20260506125003 59 39 7.0 13.9 0.00 0.00 0.00 49 1009.0
20260506124503 59 36 6.1 13.9 0.00 0.00 0.00 49 1009.1
20260506124218 59 36 6.1 19.1 0.00 0.00 0.00 49 1009.0
20260506123503 59 46 6.1 19.1 0.00 0.00 0.00 50 1009.0
20260506123218 59 43 6.1 19.1 0.00 0.00 0.00 50 1008.9
20260506122503 59 29 7.0 15.6 0.00 0.00 0.00 50 1008.8
20260506122003 59 39 6.1 15.6 0.00 0.00 0.00 51 1008.8
20260506121716 59 40 6.1 15.6 0.00 0.00 0.00 51 1008.9
20260506121003 58 24 5.2 13.0 0.00 0.00 0.00 51 1008.8
20260506120717 58 24 5.2 13.0 0.00 0.00 0.00 52 1008.8
20260506120003 58 46 5.2 12.2 0.00 0.00 0.00 52 1008.7
20260506115503 58 27 6.1 13.0 0.00 0.00 0.00 52 1008.8
20260506115003 58 22 5.2 13.0 0.00 0.00 0.00 51 1008.8
20260506114503 58 38 6.1 15.6 0.00 0.00 0.00 52 1008.7
20260506114003 58 44 8.7 16.5 0.00 0.00 0.00 52 1008.9
20260506113503 58 42 7.8 16.5 0.00 0.00 0.00 52 1008.8
20260506113003 58 38 7.0 18.2 0.00 0.00 0.00 52 1008.7
20260506112718 58 47 6.1 18.2 0.00 0.00 0.00 53 1008.6
20260506112003 58 44 7.0 15.6 0.00 0.00 0.00 53 1009.0
20260506111503 57 30 7.0 15.6 0.00 0.00 0.00 53 1009.0
20260506111217 57 28 6.1 15.6 0.00 0.00 0.00 52 1009.0
20260506110503 57 30 4.3 13.0 0.00 0.00 0.00 52 1008.8
20260506110003 57 35 4.3 13.0 0.00 0.00 0.00 53 1009.0
20260506105503 57 38 4.3 13.0 0.00 0.00 0.00 54 1008.8
20260506105003 57 36 5.2 13.0 0.00 0.00 0.00 54 1008.9
20260506104503 57 36 7.0 16.5 0.00 0.00 0.00 55 1009.2
20260506104003 57 38 7.0 16.5 0.00 0.00 0.00 55 1009.0
20260506103503 57 23 6.1 16.5 0.00 0.00 0.00 55 1009.1
20260506103003 57 19 6.1 13.0 0.00 0.00 0.00 55 1008.9
20260506102503 57 39 7.0 13.0 0.00 0.00 0.00 56 1009.0
20260506102003 56 36 6.1 13.0 0.00 0.00 0.00 55 1008.9
20260506101504 56 29 6.1 13.0 0.00 0.00 0.00 55 1008.9
20260506101003 56 30 7.0 15.6 0.00 0.00 0.00 55 1009.0
20260506100718 56 30 6.1 15.6 0.00 0.00 0.00 55 1009.2
20260506100003 56 35 5.2 13.9 0.00 0.00 0.00 56 1009.0
20260506095503 56 30 7.0 13.9 0.00 0.00 0.00 56 1009.1
20260506095003 56 34 7.8 23.5 0.00 0.00 0.00 56 1009.3
20260506094717 55 29 7.8 23.5 0.00 0.00 0.00 56 1009.3
20260506094003 55 18 7.8 23.5 0.00 0.00 0.00 56 1009.2
20260506093503 55 20 7.8 19.1 0.00 0.00 0.00 57 1009.1
20260506093003 55 32 7.8 19.1 0.00 0.00 0.00 57 1009.3
20260506092503 55 27 7.0 19.1 0.00 0.00 0.00 57 1009.0
20260506092216 55 24 7.0 16.5 0.00 0.00 0.00 57 1009.0
20260506091717 55 26 7.0 16.5 0.00 0.00 0.00 58 1009.2
20260506091003 54 30 8.7 19.1 0.00 0.00 0.00 58 1009.3
20260506090503 54 35 10.4 19.1 0.00 0.00 0.00 59 1009.3
20260506090003 54 40 10.4 19.1 0.00 0.00 0.00 59 1009.2
20260506085503 54 29 10.4 20.0 0.00 0.00 0.00 59 1009.2
20260506085003 54 26 7.0 20.0 0.00 0.00 0.00 60 1009.3
20260506084717 54 27 7.0 20.0 0.00 0.00 0.00 60 1009.0
20260506084218 54 26 7.0 18.2 0.00 0.00 0.00 61 1009.0
20260506083503 54 35 7.8 18.2 0.00 0.00 0.00 60 1009.2
20260506083003 54 39 8.7 16.5 0.00 0.00 0.00 62 1009.1
20260506082503 53 27 7.8 16.5 0.00 0.00 0.00 63 1009.3
20260506082003 53 32 7.0 15.6 0.00 0.00 0.00 63 1009.0
20260506081503 53 35 7.8 15.6 0.00 0.00 0.00 63 1009.1
20260506081003 53 42 7.8 15.6 0.00 0.00 0.00 62 1009.1
20260506080503 53 43 7.8 18.2 0.00 0.00 0.00 64 1009.0
20260506080218 53 28 7.0 18.2 0.00 0.00 0.00 64 1009.1
20260506073503 51 30 6.1 13.9 0.00 0.00 0.00 68 1009.1
20260506073003 51 25 7.0 13.9 0.00 0.00 0.00 68 1009.0
20260506072503 51 26 6.1 13.0 0.00 0.00 0.00 69 1009.1
20260506072003 51 19 5.2 12.2 0.00 0.00 0.00 70 1009.2
20260506071503 51 27 5.2 12.2 0.00 0.00 0.00 70 1009.1
20260506071218 51 40 6.1 15.6 0.00 0.00 0.00 70 1009.1
20260506070503 51 37 7.0 15.6 0.00 0.00 0.00 71 1009.0
20260506062014 49 27 6.1 12.2 0.00 0.00 0.00 76 1009.1
20260506061217 49 29 5.2 13.0 0.00 0.00 0.00 76 1009.2
20260506060503 49 22 6.1 12.2 0.00 0.00 0.00 76 1009.3
20260506051003 46 25 2.6 7.0 0.00 0.00 0.00 81 1009.1
20260506050718 46 24 2.6 7.0 0.00 0.00 0.00 81 1009.1
20260506045003 45 18 2.6 8.7 0.00 0.00 0.00 81 1008.9
20260506044503 45 22 1.7 8.7 0.00 0.00 0.00 81 1009.1
20260506044003 45 23 2.6 7.0 0.00 0.00 0.00 82 1009.0
20260506043503 44 20 2.6 7.0 0.00 0.00 0.00 82 1009.0
20260506043003 44 21 2.6 7.0 0.00 0.00 0.00 83 1009.0
20260506042503 44 25 2.6 7.0 0.00 0.00 0.00 83 1008.9
20260506042003 44 23 2.6 7.0 0.00 0.00 0.00 83 1009.1
20260506041503 44 20 2.6 6.1 0.00 0.00 0.00 83 1009.0
20260506041003 44 15 2.6 6.1 0.00 0.00 0.00 83 1009.1
20260506040717 44 14 2.6 6.1 0.00 0.00 0.00 83 1009.1
20260506040003 44 20 2.6 7.0 0.00 0.00 0.00 84 1009.0
20260506035503 44 20 1.7 7.0 0.00 0.00 0.00 84 1009.0
20260506035003 44 19 1.7 4.3 0.00 0.00 0.00 84 1009.0
20260506034717 44 20 0.9 2.6 0.00 0.00 0.00 84 1009.1
20260506034003 44 18 0.9 3.5 0.00 0.00 0.00 84 1009.0
20260506033717 44 18 0.9 3.5 0.00 0.00 0.00 84 1008.9
20260506033004 44 18 0.9 2.6 0.00 0.00 0.00 84 1009.1
20260506032503 44 17 0.9 3.5 0.00 0.00 0.00 84 1009.0
20260506032218 44 17 0.9 3.5 0.00 0.00 0.00 84 1009.1
20260506031503 44 18 0.9 4.3 0.00 0.00 0.00 84 1009.3
20260506031003 44 20 0.9 6.1 0.00 0.00 0.00 84 1009.2
20260506030717 44 23 1.7 6.1 0.00 0.00 0.00 84 1009.2
20260506030003 44 20 1.7 6.1 0.00 0.00 0.00 84 1009.2
20260506025503 44 18 0.9 4.3 0.00 0.00 0.00 84 1009.2
20260506025218 44 17 0.9 4.3 0.00 0.00 0.00 84 1009.4
20260506024717 44 17 0.9 3.5 0.00 0.00 0.00 84 1009.5
20260506024003 44 19 0.9 3.5 0.00 0.00 0.00 84 1009.4
20260506023503 44 21 0.9 3.5 0.00 0.00 0.00 84 1009.5
20260506023003 44 18 0.9 3.5 0.00 0.00 0.00 84 1009.3
20260506022503 44 16 0.9 3.5 0.00 0.00 0.00 83 1009.5
20260506022003 44 18 0.0 2.6 0.00 0.00 0.00 83 1009.6
20260506021503 44 17 0.0 2.6 0.00 0.00 0.00 83 1009.6
20260506021003 44 0 0.0 0.0 0.00 0.00 0.00 83 1009.4
20260506020503 44 18 0.0 2.6 0.00 0.00 0.00 83 1009.5
20260506020003 44 19 0.0 2.6 0.00 0.00 0.00 83 1009.4
20260506015503 45 20 0.0 2.6 0.00 0.00 0.00 83 1009.4
20260506015003 45 19 0.0 2.6 0.00 0.00 0.00 83 1009.5
20260506014503 45 21 0.9 2.6 0.00 0.00 0.00 83 1009.6
20260506014218 45 21 0.9 3.5 0.00 0.00 0.00 83 1009.6
20260506013503 45 22 0.9 3.5 0.00 0.00 0.00 83 1009.6
20260506013003 45 22 0.9 3.5 0.00 0.00 0.00 84 1009.8
20260506012503 45 22 0.9 3.5 0.00 0.00 0.00 84 1009.7
20260506012217 45 26 0.9 3.5 0.00 0.00 0.00 83 1009.8
20260506011503 45 28 0.9 3.5 0.00 0.00 0.00 84 1009.7
20260506011003 45 26 0.9 2.6 0.00 0.00 0.00 83 1009.8
20260506010503 45 27 0.9 2.6 0.00 0.00 0.00 83 1009.8
20260506010003 45 24 0.9 2.6 0.00 0.00 0.00 83 1009.7
20260506005503 45 25 0.9 2.6 0.00 0.00 0.00 83 1009.7
20260506005003 45 29 0.9 2.6 0.00 0.00 0.00 83 1009.6
20260506004503 45 32 0.0 2.6 0.00 0.00 0.00 83 1009.7
20260506004217 45 32 0.0 2.6 0.00 0.00 0.00 83 1009.7
20260506003503 45 33 0.0 0.9 0.00 0.00 0.00 83 1009.7
20260506003003 44 0 0.0 0.0 0.00 0.00 0.00 82 1009.9
20260506002503 45 33 0.0 0.9 0.00 0.00 0.00 81 1010.0
20260506002003 45 26 0.9 2.6 0.00 0.00 0.00 81 1009.6
20260506001503 45 25 0.9 2.6 0.00 0.00 0.00 81 1009.8
20260506001003 45 26 0.9 2.6 0.00 0.00 0.00 81 1009.9
20260506000718 45 28 0.0 2.6 0.00 0.00 0.00 80 1010.1
20260506000003 45 29 0.0 0.9 0.00 0.00 0.00 80 1010.0
20260505235503 46 27 0.0 2.6 0.00 0.00 0.00 79 1010.0
20260505235217 46 24 0.9 2.6 0.00 0.00 0.00 79 1009.9
20260505234503 46 23 0.9 3.5 0.00 0.00 0.00 80 1009.9
20260505234003 46 25 0.0 3.5 0.00 0.00 0.00 80 1010.3
20260505233503 46 0 0.0 0.9 0.00 0.00 0.00 80 1010.2
20260505233003 46 28 0.0 0.9 0.00 0.00 0.00 80 1010.1
20260505232503 46 28 0.0 0.9 0.00 0.00 0.00 81 1010.2
20260505232003 46 22 0.0 2.6 0.00 0.00 0.00 80 1010.1
20260505231503 46 21 0.0 2.6 0.00 0.00 0.00 80 1010.1
20260505231003 46 20 0.0 2.6 0.00 0.00 0.00 80 1010.0
20260505230503 46 3 0.0 2.6 0.00 0.00 0.00 80 1010.3
20260505230003 46 357 0.0 2.6 0.00 0.00 0.00 79 1009.9
20260505225503 46 16 0.0 2.6 0.00 0.00 0.00 79 1010.1
20260505225003 46 20 0.9 2.6 0.00 0.00 0.00 79 1010.2
20260505224503 46 21 0.9 2.6 0.00 0.00 0.00 79 1010.2
20260505224003 46 21 0.9 2.6 0.00 0.00 0.00 78 1010.1
20260505223503 46 21 1.7 3.5 0.00 0.00 0.00 78 1010.2
20260505223003 47 18 1.7 3.5 0.00 0.00 0.00 78 1010.2
20260505222503 47 17 1.7 3.5 0.00 0.00 0.00 78 1010.2
20260505222003 47 23 1.7 3.5 0.00 0.00 0.00 78 1010.3
20260505221503 47 22 1.7 3.5 0.00 0.00 0.00 78 1010.1
20260505221003 47 19 1.7 4.3 0.00 0.00 0.00 78 1010.3
20260505220717 47 18 1.7 4.3 0.00 0.00 0.00 77 1010.3
20260505220003 47 15 1.7 4.3 0.00 0.00 0.00 77 1010.2
20260505215503 47 15 0.9 4.3 0.00 0.00 0.00 76 1010.4
20260505215003 47 19 0.9 2.6 0.00 0.00 0.00 76 1010.4
20260505214717 47 22 0.9 2.6 0.00 0.00 0.00 76 1010.5
20260505214003 47 23 0.9 3.5 0.00 0.00 0.00 76 1010.1
20260505213503 47 23 0.9 3.5 0.00 0.00 0.00 75 1010.4
20260505213003 48 24 1.7 3.5 0.00 0.00 0.00 75 1010.2
20260505212717 48 24 1.7 3.5 0.00 0.00 0.00 74 1010.4
20260505212003 48 23 1.7 3.5 0.00 0.00 0.00 74 1010.4
20260505211503 48 27 1.7 3.5 0.00 0.00 0.00 74 1010.5
20260505211003 49 24 1.7 4.3 0.00 0.00 0.00 73 1010.6
20260505210503 49 21 1.7 4.3 0.00 0.00 0.00 73 1010.5
20260505210003 49 26 2.6 4.3 0.00 0.00 0.00 73 1010.7
20260505205717 49 30 1.7 4.3 0.00 0.00 0.00 73 1010.5
20260505205003 49 27 2.6 6.1 0.00 0.00 0.00 72 1010.7
20260505204503 49 25 2.6 6.1 0.00 0.00 0.00 72 1010.7
20260505204003 50 27 2.6 7.0 0.00 0.00 0.00 72 1010.6
20260505203503 50 27 3.5 7.0 0.00 0.00 0.00 72 1010.6
20260505203003 50 23 3.5 7.0 0.00 0.00 0.00 71 1010.5
20260505202503 50 21 3.5 7.0 0.00 0.00 0.00 71 1010.5